Flag for Australia Weather past 2 weeks in Geelong, Victoria, Australia

Now
62 °F

Cool.


Feels Like: 62 °F
Forecast: 60 / 73 °F
Wind: 7 mph from South

Location: Geelong Airport Aws

Current Time: Dec 22, 2014 at 4:43:54 AM

Latest Report: Dec 22, 2014 at 4:00 AM


Visibility: N/A

Pressure: 29.91 "Hg

Humidity: 92%

Dew point: 59 °F

Location of GeelongLocation

Historic Weather in Geelong — Graph

°F

Geelong temperature yesterday

Maximum temperature yesterday: 88 °F (at 3:00 PM)
Minimum temperature yesterday: 54 °F (at 3:00 AM)
Average temperature yesterday: 67 °F

Past Weeks' High & Low Weather Summary

 TemperatureHumidityPressure
High88 °F (Dec 13, 3:00 PM)94% (Dec 8, 6:00 AM)30.18 "Hg (Dec 8, 6:00 AM)
Low48 °F (Dec 18, 6:00 AM)14% (Dec 16, 1:00 PM)29.29 "Hg (Dec 16, 1:00 PM)
Average62 °F73%29.88 "Hg
* Reported Dec 7 3:00 AM — Dec 22 3:00 AM, Geelong, Weather by CustomWeather, © 2014

Note: Actual official high and low records may vary slightly from our data, if they occured in-between our weather recording intervals... More about our weather records

Advertising

Geelong weather history for previous 24 hours

 ConditionsComfort  
Time TempWeatherWind HumidityBarometerVisibility
3:00 AM
Dec 22
61 °FCool.5 mph92%29.93 "HgN/A
1:00 AM61 °FCool.8 mph92%29.96 "HgN/A
12:00 AM62 °FCool.10 mph92%29.96 "HgN/A
10:00 PM
Dec 21
63 °FMild.13 mph92%29.96 "HgN/A
9:00 PM65 °FMild.15 mph82%29.93 "HgN/A
7:00 PM73 °FMild.12 mph60%29.88 "HgN/A
6:00 PM75 °FMild.10 mph53%29.88 "HgN/A
4:00 PM74 °FMild.17 mph60%29.90 "HgN/A
3:00 PM88 °FPleasantly warm.13 mph32%29.87 "HgN/A
1:00 PM81 °FWarm.9 mph42%29.91 "HgN/A
12:00 PM77 °FWarm.3 mph43%29.94 "HgN/A
10:00 AM69 °FMild.7 mph67%29.95 "HgN/A
9:00 AM67 °FMild.7 mph76%29.97 "HgN/A
7:00 AM58 °FCool.2 mph93%29.97 "HgN/A
6:00 AM56 °FCool.1 mph93%29.96 "HgN/A
4:00 AM55 °FCool.2 mph93%29.95 "HgN/A
Weather by CustomWeather, © 2014

See weather overviewHow to use our weather pages